TimeCST,TemperatureF,Dew PointF,Humidity,Sea Level PressureIn,VisibilityMPH,Wind Direction,Wind SpeedMPH,Gust SpeedMPH,PrecipitationIn,Events,Conditions,WindDirDegrees,DateUTC
12:53 AM,30.9,26.1,82,30.36,9.0,South,4.6,-,N/A,,Clear,170,2012-11-29 06:53:00
1:53 AM,27.0,23.0,85,30.35,8.0,Calm,Calm,-,N/A,,Clear,0,2012-11-29 07:53:00
2:53 AM,27.0,23.0,85,30.35,8.0,Calm,Calm,-,N/A,,Clear,0,2012-11-29 08:53:00
3:53 AM,26.1,23.0,88,30.35,8.0,Calm,Calm,-,N/A,,Clear,0,2012-11-29 09:53:00
4:53 AM,32.0,25.0,75,30.35,9.0,South,4.6,-,N/A,,Clear,170,2012-11-29 10:53:00
5:53 AM,30.0,25.0,82,30.36,9.0,SSE,3.5,-,N/A,,Clear,150,2012-11-29 11:53:00
6:53 AM,35.1,27.0,72,30.37,8.0,South,5.8,-,N/A,,Clear,180,2012-11-29 12:53:00
7:53 AM,36.0,28.0,73,30.38,9.0,South,5.8,-,N/A,,Clear,170,2012-11-29 13:53:00
8:53 AM,41.0,30.0,65,30.37,10.0,South,4.6,-,N/A,,Clear,180,2012-11-29 14:53:00
9:53 AM,46.0,30.0,54,30.36,10.0,SSW,4.6,-,N/A,,Clear,200,2012-11-29 15:53:00
10:53 AM,50.0,30.9,48,30.34,10.0,SW,9.2,16.1,N/A,,Clear,220,2012-11-29 16:53:00
11:53 AM,54.0,30.9,41,30.30,10.0,SW,10.4,16.1,N/A,,Clear,220,2012-11-29 17:53:00
12:53 PM,55.0,28.9,37,30.27,10.0,SW,11.5,-,N/A,,Clear,230,2012-11-29 18:53:00
1:53 PM,55.9,28.9,36,30.24,10.0,SSW,9.2,-,N/A,,Clear,210,2012-11-29 19:53:00
2:53 PM,55.0,28.0,35,30.23,10.0,SSW,4.6,-,N/A,,Clear,210,2012-11-29 20:53:00
3:53 PM,55.0,28.9,37,30.23,10.0,SSW,5.8,-,N/A,,Clear,200,2012-11-29 21:53:00
4:53 PM,52.0,28.9,41,30.23,10.0,South,3.5,-,N/A,,Clear,190,2012-11-29 22:53:00
5:53 PM,50.0,28.0,43,30.24,10.0,South,4.6,-,N/A,,Clear,180,2012-11-29 23:53:00
6:53 PM,48.9,28.0,44,30.23,10.0,South,5.8,-,N/A,,Clear,180,2012-11-30 00:53:00
7:53 PM,48.9,27.0,43,30.24,10.0,South,3.5,-,N/A,,Clear,190,2012-11-30 01:53:00
8:53 PM,46.9,28.0,48,30.23,10.0,South,4.6,-,N/A,,Clear,180,2012-11-30 02:53:00
9:53 PM,46.0,28.0,50,30.24,10.0,SSW,3.5,-,N/A,,Clear,200,2012-11-30 03:53:00
10:53 PM,46.0,28.0,50,30.23,10.0,Variable,3.5,-,N/A,,Clear,0,2012-11-30 04:53:00
11:53 PM,46.0,27.0,47,30.22,10.0,Variable,4.6,-,N/A,,Clear,0,2012-11-30 05:53:00